"Time","Temp","Dewpoint","Humidity","Pressure","Direction","Speed","Gust","Precip","PrecipRate"
"00:04:58","33","19.8","58","29.98","308","5","11.5","0.00","0.00"
"00:09:57","32.8","19.7","58.2","29.98","302","5.8","16","0.00","0.00"
"00:14:58","32.8","19.8","58.5","29.99","314","6.5","16.1","0.00","0.00"
"00:19:57","32.6","19.6","58.5","29.99","268","4.8","12","0.00","0.00"
"00:24:58","32.5","19.6","58.6","29.99","291","3.9","11","0.00","0.00"
"00:29:57","32.3","19.4","58.6","29.99","271","3.5","13","0.00","0.00"
"00:34:57","32.3","19.3","58.4","29.99","255","5","12.7","0.00","0.00"
"00:39:58","32.2","19.5","59","29.99","274","5.5","13","0.00","0.00"
"00:44:58","32.2","19.3","58.5","29.99","283","5.5","14","0.00","0.00"
"00:49:59","32.1","19.5","59.2","29.99","251","3.6","9","0.00","0.00"
"00:54:56","32.1","19.3","58.7","29.99","276","4.8","13","0.00","0.00"
"00:59:56","32.2","19.5","59","30.00","269","4.5","10.4","0.00","0.00"
"01:04:59","32.2","19.3","58.5","30.00","283","5.8","12","0.00","0.00"
"01:09:59","32.2","19.3","58.4","30.00","287","4.9","10.4","0.00","0.00"
"01:14:59","32.3","19.3","58.2","30.00","299","4.7","10","0.00","0.00"
"01:19:56","32.2","19.3","58.4","29.99","268","4.5","11","0.00","0.00"
"01:24:58","32.2","19.2","58.3","29.99","290","5.5","17","0.00","0.00"
"01:29:56","32.2","19.3","58.5","29.99","283","4.9","11.5","0.00","0.00"
"01:34:56","32.1","19.1","58.2","29.99","286","5.3","14","0.00","0.00"
"01:39:59","32.1","19.1","58.2","29.99","304","4.7","11","0.00","0.00"
"01:44:59","32","19.2","58.9","30.00","298","4.4","13","0.00","0.00"
"01:49:56","31.9","19.2","59","30.00","304","5","9.2","0.00","0.00"
"01:54:56","31.9","19.1","58.7","30.00","275","4.2","13","0.00","0.00"
"01:59:59","31.9","19.2","59","30.00","310","3.9","7","0.00","0.00"
"02:04:58","31.7","19","59","30.00","305","4.8","14","0.00","0.00"
"02:09:58","31.7","19","59","30.00","298","3.9","13.8","0.00","0.00"
"02:14:59","31.7","19","59","30.00","293","4.6","11","0.00","0.00"
"02:19:59","31.7","18.9","58.8","30.00","311","5.2","12","0.00","0.00"
"02:24:59","31.7","19","59","30.00","298","3.9","11.5","0.00","0.00"
"02:29:56","31.7","18.7","58.3","30.00","309","5.4","12","0.00","0.00"
"02:34:58","31.7","18.6","58","30.00","297","4.7","12","0.00","0.00"
"02:39:57","31.7","18.6","58","30.00","291","5.1","16.1","0.00","0.00"
"02:44:57","31.7","18.6","58","30.00","324","5.1","17.3","0.00","0.00"
"02:49:59","31.7","18.6","58","30.00","311","4.3","11","0.00","0.00"
"02:54:57","31.5","18.3","57.8","30.00","301","5.1","11.5","0.00","0.00"
"02:59:57","31.5","18.1","57.1","30.00","306","5.8","15","0.00","0.00"
"03:04:59","31.6","18.1","57","30.00","313","4.4","12","0.00","0.00"
"03:09:59","31.6","18.1","57","30.00","279","4.8","13","0.00","0.00"
"03:14:56","31.6","18.1","57","30.00","310","4.6","15","0.00","0.00"
"03:19:58","31.5","18","57","30.00","305","3.3","15","0.00","0.00"
"03:24:58","31.4","18","57.3","30.00","304","2.9","11","0.00","0.00"
"03:29:57","31.3","17.9","57.4","30.01","325","2.1","10","0.00","0.00"
"03:34:56","31.2","17.9","57.5","30.01","317","2","9","0.00","0.00"
"03:39:58","31.1","17.9","57.8","30.01","321","3.9","12","0.00","0.00"
"03:44:57","31.1","18","58","30.01","347","1.4","11.5","0.00","0.00"
"03:49:56","31","17.9","57.9","30.01","320","2.8","9.2","0.00","0.00"
"03:54:57","31.1","18","58","30.01","308","1.4","4","0.00","0.00"
"03:59:59","31","18","58.1","30.02","274","2.4","6","0.00","0.00"
"04:04:57","31.1","18","58","30.02","280","2.3","5.8","0.00","0.00"
"04:09:58","31.2","18","57.8","30.02","295","2.2","6","0.00","0.00"
"04:14:59","31.3","17.9","57.5","30.02","319","3.4","6","0.00","0.00"
"04:19:59","31.2","18.2","58.2","30.02","311","3","6","0.00","0.00"
"04:24:57","31.1","18","58","30.02","301","3.1","9","0.00","0.00"
"04:29:59","31","17.9","58","30.02","314","3.6","7","0.00","0.00"
"04:34:58","31","17.9","58","30.02","315","3.6","7","0.00","0.00"
"04:39:58","30.9","18","58.4","30.02","270","3.3","6","0.00","0.00"
"04:44:55","30.9","18.2","58.8","30.02","320","4.7","10.4","0.00","0.00"
"04:49:56","30.9","18.2","59","30.02","314","4.3","8.1","0.00","0.00"
"04:54:56","30.9","18.2","58.9","30.02","324","3.4","6.9","0.00","0.00"
"04:59:59","30.9","18.2","58.9","30.03","322","2.7","5","0.00","0.00"
"05:04:59","30.8","18.1","59","30.03","278","2.9","11.5","0.00","0.00"
"05:09:59","30.8","18.2","59.2","30.03","290","2.1","7","0.00","0.00"
"05:14:57","30.8","18.1","59.1","30.04","318","2.2","5","0.00","0.00"
"05:19:56","30.8","18.1","59","30.04","270","2.7","9.2","0.00","0.00"
"05:24:59","31.1","18.2","58.7","30.04","312","3.1","7","0.00","0.00"
"05:29:58","31.3","18.4","58.4","30.04","272","2.5","6.9","0.00","0.00"
"05:34:59","31.5","18.4","58","30.04","317","3.3","11.5","0.00","0.00"
"05:39:59","31.5","18.7","58.6","30.04","314","3.4","10","0.00","0.00"
"05:44:59","31.6","18.5","58.2","30.05","313","4.4","10.4","0.00","0.00"
"05:49:56","31.7","18.6","58.1","30.05","310","3.8","8.1","0.00","0.00"
"05:54:58","31.7","18.7","58.2","30.05","309","4","10.4","0.00","0.00"
"05:59:56","31.7","18.8","58.5","30.05","288","2.3","4","0.00","0.00"
"06:04:58","31.7","18.9","58.8","30.05","317","3.4","9.2","0.00","0.00"
"06:09:59","31.7","19","58.9","30.05","305","2.9","6","0.00","0.00"
"06:14:56","31.7","19","59","30.05","301","3.4","10","0.00","0.00"
"06:19:57","31.7","19","59","30.05","293","3.4","6.9","0.00","0.00"
"06:24:56","31.7","19","59","30.05","275","3.8","12","0.00","0.00"
"06:29:57","31.6","18.9","59","30.06","296","3.3","6","0.00","0.00"
"06:34:59","31.5","18.8","59","30.06","314","2.7","6","0.00","0.00"
"06:39:57","31.4","18.7","59.1","30.06","300","3","10.4","0.00","0.00"
"06:44:56","31.4","18.8","59.1","30.06","292","2","5.8","0.00","0.00"
"06:49:58","31.4","19","59.8","30.06","277","3.3","11.5","0.00","0.00"
"06:54:57","31.4","18.7","59","30.06","289","3.6","9.2","0.00","0.00"
"06:59:58","31.5","18.8","59","30.07","336","1.9","9.2","0.00","0.00"
"07:04:56","31.4","18.7","59","30.07","313","1.9","7","0.00","0.00"
"07:09:57","31.3","18.7","59.3","30.07","322","3.3","7","0.00","0.00"
"07:14:57","31.4","18.7","59.1","30.08","315","3.4","10.4","0.00","0.00"
"07:19:59","31.4","18.7","59.1","30.08","287","2.5","7","0.00","0.00"
"07:24:57","31.4","18.7","59","30.08","310","3.8","7","0.00","0.00"
"07:29:56","31.4","18.7","59","30.08","305","3.9","10.4","0.00","0.00"
"07:34:56","31.4","18.7","59","30.08","302","3.3","9.2","0.00","0.00"
"07:39:58","31.5","18.8","59","30.08","322","3.5","7","0.00","0.00"
"07:44:57","31.5","19","59.5","30.09","287","1.9","3.5","0.00","0.00"
"07:49:57","31.5","19","59.4","30.09","308","2.5","6","0.00","0.00"
"07:54:59","31.6","18.9","59","30.09","310","2.8","9.2","0.00","0.00"
"07:59:59","31.8","19.1","59","30.09","311","3","12","0.00","0.00"
"08:04:58","32.2","19.1","58.1","30.09","304","4.1","12","0.00","0.00"
"08:09:59","32.6","19.4","58","30.09","308","3.8","11","0.00","0.00"
"08:14:59","33.1","19.6","57.3","30.09","314","3.3","11.5","0.00","0.00"
"08:19:56","33.4","19.8","57","30.09","311","4","9.2","0.00","0.00"
"08:24:59","33.7","20","56.7","30.09","321","3.7","11","0.00","0.00"
"08:29:57","34","19.8","55.7","30.09","318","4.2","12","0.00","0.00"
"08:34:57","34.2","19.9","55.6","30.09","322","4.2","11.5","0.00","0.00"
"08:39:58","34.3","19.9","55.2","30.09","316","4.7","13","0.00","0.00"
"08:44:59","34.5","20.1","55.4","30.09","302","4.4","10","0.00","0.00"
"08:49:58","34.6","20.1","55.1","30.09","334","6.7","14","0.00","0.00"
"08:54:58","34.7","20.3","55.3","30.09","310","5.7","13","0.00","0.00"
"08:59:58","35","20.7","55.6","30.09","319","3.5","10","0.00","0.00"
"09:04:57","35.3","20.5","54.4","30.09","296","5.2","13","0.00","0.00"
"09:09:58","35.4","20.4","54","30.09","283","3.9","16.1","0.00","0.00"
"09:14:59","35.7","20.7","54","30.09","276","4.6","11.5","0.00","0.00"
"09:19:58","35.7","20.5","53.6","30.09","309","6.9","17.3","0.00","0.00"
"09:24:57","35.8","20.4","53.3","30.09","312","5.1","16","0.00","0.00"
"09:29:59","35.9","20.4","53","30.09","306","5.7","17","0.00","0.00"
"09:34:59","36.1","20.6","53","30.09","300","6.1","17.3","0.00","0.00"
"09:39:58","36.2","20.5","52.8","30.09","299","5.6","16.1","0.00","0.00"
"09:44:58","36.2","20.5","52.5","30.09","269","6.6","15","0.00","0.00"
"09:49:59","36.3","20.7","52.9","30.09","300","5.9","11.5","0.00","0.00"
"09:54:58","36.4","20.5","52.3","30.09","276","4.7","11.5","0.00","0.00"
"09:59:56","36.4","20.5","52","30.10","301","7.3","18.4","0.00","0.00"
"10:04:56","36.4","20.5","52.1","30.10","288","5.1","11.5","0.00","0.00"
"10:09:56","36.6","20.5","51.9","30.10","285","5.8","15","0.00","0.00"
"10:14:57","36.6","20.5","51.6","30.10","297","6.1","11.5","0.00","0.00"
"10:19:59","36.9","20.8","51.8","30.09","308","6.7","14","0.00","0.00"
"10:24:58","37.2","21.1","51.9","30.09","310","5.4","14","0.00","0.00"
"10:29:59","37.3","20.7","50.7","30.09","332","6.6","13","0.00","0.00"
"10:34:56","37.6","21.2","51.2","30.09","328","6.2","12.7","0.00","0.00"
"10:39:56","38","21.5","51.2","30.09","321","5.4","13","0.00","0.00"
"10:44:58","38","20.9","49.7","30.09","323","5.8","13","0.00","0.00"
"10:49:58","38.1","21.2","50.4","30.09","306","4.6","12.7","0.00","0.00"
"10:54:56","38.4","21.5","50.4","30.09","309","3.6","12","0.00","0.00"
"10:59:59","38.6","21.1","49.1","30.09","330","5.7","13","0.00","0.00"
"11:04:58","38.6","21.6","50.2","30.09","304","5.8","14","0.00","0.00"
"11:09:58","38.8","21.7","50","30.09","310","3.9","11.5","0.00","0.00"
"11:14:56","39.1","22","49.9","30.09","250","4.8","13","0.00","0.00"
"11:19:57","39.2","21.6","49.1","30.08","279","4.8","11.5","0.00","0.00"
"11:24:59","39.2","21.5","48.7","30.08","264","5","14","0.00","0.00"
"11:29:56","39.3","21.7","49","30.08","319","4","11","0.00","0.00"
"11:34:59","39.5","21.9","48.9","30.08","277","4.3","12","0.00","0.00"
"11:39:59","39.7","22.2","49.3","30.08","291","4.1","11.5","0.00","0.00"
"11:44:58","40.3","22.9","49.7","30.08","260","4.1","7","0.00","0.00"
"11:49:58","40.4","21.9","47.4","30.07","316","5.1","14","0.00","0.00"
"11:54:56","40.2","22.1","48.2","30.07","299","3.7","9.2","0.00","0.00"
"11:59:57","40.3","22.5","48.7","30.07","282","4","9.2","0.00","0.00"
"12:04:56","40.5","22.4","48.3","30.06","288","2.9","6","0.00","0.00"
"12:09:59","40.7","22.8","48.7","30.06","302","4.3","12","0.00","0.00"
"12:14:58","40.9","22.7","48","30.06","291","4.1","9.2","0.00","0.00"
"12:19:59","41","22.3","47","30.06","319","5.7","13","0.00","0.00"
"12:24:56","40.9","22.4","47.4","30.06","313","3.9","10.4","0.00","0.00"
"12:29:57","41.1","22.9","48","30.06","293","3.9","10","0.00","0.00"
"12:34:59","41.5","23.3","48.2","30.05","313","5.6","12","0.00","0.00"
"12:39:58","41.8","23.3","47.6","30.05","290","3.4","9.2","0.00","0.00"
"12:44:57","42","23.1","46.9","30.05","302","5.3","13","0.00","0.00"
"12:49:58","41.9","23.3","47.5","30.04","320","4.8","14","0.00","0.00"
"12:54:59","42","23.3","47.2","30.04","318","5.4","11","0.00","0.00"
"12:59:56","41.8","23.1","47.2","30.04","310","5.1","11.5","0.00","0.00"
"13:04:56","41.6","23","47.3","30.03","282","4.9","12","0.00","0.00"
"13:09:56","41.9","23.2","47.3","30.03","289","5.1","12","0.00","0.00"
"13:14:57","41.9","23.2","47.3","30.03","299","4.8","10.4","0.00","0.00"
"13:19:56","42","23.2","47.1","30.03","311","6.2","13","0.00","0.00"
"13:24:56","42.3","23.7","47.3","30.03","328","6.4","14","0.00","0.00"
"13:29:58","42.5","23.7","47","30.03","323","5.1","11","0.00","0.00"
"13:34:57","42.6","24","47.5","30.03","310","4.5","11","0.00","0.00"
"13:39:56","42.9","24","47.1","30.03","289","3.8","9.2","0.00","0.00"
"13:44:59","42.9","24.5","47.9","30.03","294","4.8","11","0.00","0.00"
"13:49:59","43","24","46.8","30.03","308","4.5","12","0.00","0.00"
"13:54:57","42.8","23.6","46.5","30.03","316","5.1","11.5","0.00","0.00"
"13:59:57","42.8","24.1","47.3","30.03","328","4.3","7","0.00","0.00"
"14:04:58","43","24.4","47.5","30.03","334","4.6","12","0.00","0.00"
"14:09:58","43.4","24.8","47.6","30.03","329","3.3","9","0.00","0.00"
"14:14:59","44","24.9","46.8","30.03","325","3.5","9.2","0.00","0.00"
"14:19:57","44.3","25","46.3","30.02","320","2.8","7","0.00","0.00"
"14:24:57","44.6","25.6","46.8","30.02","336","2.9","7","0.00","0.00"
"14:29:57","45","25.3","45.8","30.02","307","3.3","6","0.00","0.00"
"14:34:59","44.8","24.3","44.2","30.01","301","4.7","12","0.00","0.00"
"14:39:57","44.6","24.6","45","30.01","294","4.3","10.4","0.00","0.00"
"14:44:58","44.5","24.2","44.5","30.01","309","4.5","10.4","0.00","0.00"
"14:49:57","44.3","24.7","45.7","30.01","263","3.5","11","0.00","0.00"
"14:54:59","44.3","23.8","44.1","30.01","312","3.9","9.2","0.00","0.00"
"14:59:59","44.3","24","44.5","30.01","315","4.5","9.2","0.00","0.00"
"15:04:56","44.2","23.8","44.3","30.01","316","4","11","0.00","0.00"
"15:09:56","44","23.3","43.7","30.01","288","4.3","11.5","0.00","0.00"
"15:14:59","43.8","23.4","44.2","30.01","26","3.2","6","0.00","0.00"
"15:19:56","44","23.7","44.4","30.00","309","2.5","7","0.00","0.00"
"15:24:59","44","23.6","44.2","30.00","281","3.5","9.2","0.00","0.00"
"15:29:59","44.3","23.6","43.7","30.00","277","2.8","6","0.00","0.00"
"15:34:59","44.6","23.7","43.5","30.00","296","3.4","6","0.00","0.00"
"15:39:58","44.5","22.9","42.3","30.00","278","3.1","10.4","0.00","0.00"
"15:44:59","44.1","22.9","42.8","30.00","281","2.4","7","0.00","0.00"
"15:49:58","43.9","22.7","42.8","30.00","326","4.3","7","0.00","0.00"
"15:54:59","44.1","22.7","42.5","30.00","324","3.8","10.4","0.00","0.00"
"15:59:56","44.2","22.5","42","30.00","343","3.9","10.4","0.00","0.00"
"16:04:57","44.3","22.8","42.4","30.00","310","2","5","0.00","0.00"
"16:09:57","44.3","22.1","41.1","30.00","315","2.2","4","0.00","0.00"
"16:14:56","44.2","22.6","42.1","30.00","330","1.6","5","0.00","0.00"
"16:19:56","44","22.2","41.6","30.00","303","2.5","9.2","0.00","0.00"
"16:24:59","43.8","21.9","41.4","30.00","269","1.5","3.5","0.00","0.00"
"16:29:56","43.7","22.3","42.4","30.00","280","1.4","3.5","0.00","0.00"
"16:34:59","43.6","22","42","30.00","293","1.8","3.5","0.00","0.00"
"16:39:56","43.4","22.5","43.2","30.00","338","1.8","4","0.00","0.00"
"16:44:57","43.1","22.1","43","30.00","329","1.5","3.5","0.00","0.00"
"16:49:57","42.8","22.1","43.5","30.00","322","0.6","2.3","0.00","0.00"
"16:54:59","42.5","22.3","44.3","30.00","322","0.1","1.2","0.00","0.00"
"16:59:58","42.3","22.4","45","30.00","322","0","0","0.00","0.00"
"17:04:58","42.1","22.1","44.6","30.00","322","0","0","0.00","0.00"
"17:09:59","41.9","22.3","45.5","30.00","322","0","0","0.00","0.00"
"17:14:57","41.6","22.6","46.6","30.00","322","0","0","0.00","0.00"
"17:19:58","41.4","22.6","47","30.00","322","0","0","0.00","0.00"
"17:24:58","41.1","22.6","47.5","30.00","322","0","0","0.00","0.00"
"17:29:58","40.8","22.8","48.4","30.00","322","0","0","0.00","0.00"
"17:34:56","40.5","22.8","49","30.00","322","0","0","0.00","0.00"
"17:39:57","40.4","22.8","49.2","30.00","322","0","0","0.00","0.00"
"17:44:57","40.2","23","50","30.01","322","0","0","0.00","0.00"
"17:49:59","40.2","24.2","52.6","30.01","322","0","0","0.00","0.00"
"17:54:56","40","24.3","53.2","30.01","322","0","0","0.00","0.00"
"17:59:59","39.8","23","50.7","30.01","322","0","0","0.00","0.00"
"18:04:59","39.7","22.6","50","30.00","322","0","0","0.00","0.00"
"18:09:56","39.7","22.7","50.2","30.00","322","0","0","0.00","0.00"
"18:14:56","39.6","22.2","49.3","30.00","322","0","0","0.00","0.00"
"18:19:58","39.7","23","50.9","30.00","322","0","0","0.00","0.00"
"18:24:56","39.7","24.4","53.9","30.00","322","0","0","0.00","0.00"
"18:29:59","39.7","23.9","52.8","30.00","322","0","0","0.00","0.00"
"18:34:59","39.6","24","53.1","30.00","322","0","0","0.00","0.00"
"18:39:56","39.6","24.5","54.5","30.00","322","0","0","0.00","0.00"
"18:44:57","39.6","24.1","53.5","30.01","322","0","0","0.00","0.00"
"18:49:58","39.5","25.6","57.3","30.01","322","0","0","0.00","0.00"
"18:54:57","39.4","26.2","58.9","30.01","322","0","0","0.00","0.00"
"18:59:56","39.4","26.4","59.5","30.01","322","0","0","0.00","0.00"
"19:04:59","39.4","26.2","58.9","30.01","322","0","0","0.00","0.00"
"19:09:57","39.5","25.4","57","30.01","322","0","0","0.00","0.00"
"19:14:56","39.4","24.1","53.9","30.01","322","0","0","0.00","0.00"
"19:19:58","39.5","24.1","53.7","30.01","322","0","0","0.00","0.00"
"19:24:58","39.7","23.8","52.9","30.01","322","0.5","2.3","0.00","0.00"
"19:29:58","39.9","23.4","51.3","30.01","323","0.2","2.3","0.00","0.00"
"19:34:58","40.2","23.5","51.1","30.01","311","0.5","3.5","0.00","0.00"
"19:39:57","40.3","23.4","50.5","30.01","311","0.5","2.3","0.00","0.00"
"19:44:58","40.5","23.6","50.7","30.01","306","1.1","3","0.00","0.00"
"19:49:59","40.7","23.8","50.6","30.00","306","1.7","3.5","0.00","0.00"
"19:54:58","40.8","24.2","51.2","30.00","307","0.7","3","0.00","0.00"
"19:59:57","40.9","23.9","50.6","30.00","305","0.4","2.3","0.00","0.00"
"20:04:59","40.9","24.9","52.7","30.00","304","0.5","2.3","0.00","0.00"
"20:09:59","40.8","24.9","52.9","30.00","304","0.3","1.2","0.00","0.00"
"20:14:59","40.7","24.4","52.2","30.00","304","0","1.2","0.00","0.00"
"20:19:58","40.6","24.3","52","30.00","304","0","0","0.00","0.00"
"20:24:58","40.5","24.7","53","30.00","304","0","0","0.00","0.00"
"20:29:58","40.5","24.6","52.9","30.00","304","0","0","0.00","0.00"
"20:34:58","40.5","25.7","55.3","29.99","304","0.1","1","0.00","0.00"
"20:39:57","40.4","25.3","54.5","29.99","299","0.7","3.5","0.00","0.00"
"20:44:58","40.4","24.6","53","29.99","101","1.3","3.5","0.00","0.00"
"20:49:59","40.5","24.3","52.2","29.99","101","1.3","3.5","0.00","0.00"
"20:54:58","40.5","24.2","51.8","29.99","101","1.1","3","0.00","0.00"
"20:59:56","40.6","24.3","52","29.99","102","1","3.5","0.00","0.00"
"21:04:57","40.6","24.2","51.8","29.98","102","1.2","2.3","0.00","0.00"
"21:09:58","40.6","24.2","51.9","29.98","102","0.7","2.3","0.00","0.00"
"21:14:55","40.6","24.5","52.5","29.98","102","0.3","2","0.00","0.00"
"21:19:58","40.5","24.4","52.3","29.98","102","0.1","1.2","0.00","0.00"
"21:24:56","40.5","24.8","53.3","29.98","102","0.5","2.3","0.00","0.00"
"21:29:58","40.4","24.8","53.4","29.98","102","0","1.2","0.00","0.00"
"21:34:56","40.4","25","53.9","29.97","102","0","0","0.00","0.00"
"21:39:56","40.3","24.5","52.9","29.97","102","0.3","2","0.00","0.00"
"21:44:56","40.3","24.9","53.9","29.97","102","0.3","2.3","0.00","0.00"
"21:49:57","40.2","24.4","53","29.97","102","0.5","2.3","0.00","0.00"
"21:54:58","40.2","24.8","53.8","29.97","102","0.3","2","0.00","0.00"
"21:59:57","40.2","24.4","53","29.97","102","0.8","2.3","0.00","0.00"
"22:04:59","40.2","24.7","53.4","29.97","102","0.1","1.2","0.00","0.00"
"22:09:56","40.2","24.9","54","29.97","102","0","0","0.00","0.00"
"22:14:56","40.2","25","54.2","29.97","102","0","0","0.00","0.00"
"22:19:57","40.2","25.4","55.4","29.96","102","0","0","0.00","0.00"
"22:24:57","40.1","26.1","57.2","29.96","102","0","0","0.00","0.00"
"22:29:59","40","27.4","60.5","29.96","102","0","0","0.00","0.00"
"22:34:57","39.9","26.8","59.4","29.95","102","0","0","0.00","0.00"
"22:39:57","39.8","27.3","60.8","29.95","102","0","0","0.00","0.00"
"22:44:57","39.6","26.2","58.3","29.95","102","0","0","0.00","0.00"
"22:49:57","39.5","25.7","57.4","29.95","102","0","0","0.00","0.00"
"22:54:59","39.4","25.4","57","29.95","102","0.3","1.2","0.00","0.00"
"22:59:57","39.3","25.1","56.3","29.95","102","0.1","1.2","0.00","0.00"
"23:04:59","39.3","25.2","56.7","29.95","102","0","0","0.00","0.00"
"23:09:59","39.3","25.2","56.8","29.95","102","0","0","0.00","0.00"
"23:14:57","39.3","26","58.6","29.95","102","0","0","0.00","0.00"
"23:19:57","39.3","25.8","58.2","29.95","102","0","0","0.00","0.00"
"23:24:57","39.3","26.1","58.9","29.95","102","0","0","0.00","0.00"
"23:29:59","39.3","26.7","60.2","29.96","102","0.8","2.3","0.00","0.00"
"23:34:56","39.3","27.8","63.2","29.96","102","1","2.3","0.00","0.00"
"23:39:56","39.2","27.8","63.3","29.96","102","0.9","2.3","0.00","0.00"
"23:44:56","39.2","27.3","62","29.96","102","0","2.3","0.00","0.00"
"23:49:58","39.1","26.9","61.2","29.95","102","0","0","0.00","0.00"
"23:54:56","39.1","27.1","61.7","29.95","102","0","0","0.00","0.00"
"23:59:57","39.2","28","64","29.95","102","0","0","0.00","0.00"
